Regional Weather Roundup
Issued by NWS

Home | Current Version | Previous Version | Graphics & Text | Print | Product List | Glossary On
Versions: 1 2 3 4 5 6 7 8 9 10 11 12 13 14 15 16 17 18 19 20 21 22 23 24 25 26 27 28 29 30 31 32 33 34 35 36 37 38 39 40 41 42 43 44 45 46 47 48 49 50
000
ASUS44 KMEG 302310
RWRTN
TENNESSEE HOURLY STATE WEATHER ROUNDUP
NATIONAL WEATHER SERVICE MEMPHIS TN
600 PM CDT SUN AUG 30 2015

TNZ002-004-019-021-049-052-054-088>092-310000-
WEST TENNESSEE

CITY           SKY/WX    TMP DP  RH WIND       PRES   REMARKS
MEMPHIS INTL   PTSUNNY   85  67  54 E12       30.00R
NWS MEMPHIS      N/A     78 N/A N/A MISG        N/A
JACKSON        CLOUDY    73  66  78 NW10      30.07R THUNDER
DYERSBURG      PTSUNNY  N/A N/A N/A MISG        N/A
UNION CITY     MOSUNNY   81  70  69 SE8       30.03R
PARIS          MOSUNNY   70  68  94 S6        30.07S
LEXINGTON      SUNNY     75  73  94 CALM      30.05S
$$

TNZ008-025-027-028-033-062-065-066-310000-
NORTH MIDDLE TENNESSEE

CITY           SKY/WX    TMP DP  RH WIND       PRES   REMARKS
NASHVILLE      PTSUNNY   79  63  57 SW3       30.08S
CLARKSVILLE    LGT RAIN  76  69  79 CALM      30.07R
SMYRNA         CLOUDY    81  67  62 CALM      30.09S
COOKEVILLE     SUNNY     75  72  88 N3        30.09R
CROSSVILLE     CLOUDY    74  65  73 CALM      30.12F
$$

TNZ061-075-076-078-094-096-097-310000-
SOUTH MIDDLE TENNESSEE

CITY           SKY/WX    TMP DP  RH WIND       PRES   REMARKS
FAYETTEVILLE   SUNNY     73  63  68 NE3       30.08S
TULLAHOMA      SUNNY     72  66  83 CALM      30.10S
WINCHESTER     SUNNY     73  66  78 CALM      30.09S
MCMINNVILLE    MOSUNNY   73  70  88 N5        30.09S
COLUMBIA       PTSUNNY   75  66  73 CALM      30.08R
SHELBYVILLE    MOSUNNY   75  68  78 CALM      30.09S
$$

TNZ017-018-042-046-047-310000-
NORTHEAST TENNESSEE

CITY           SKY/WX    TMP DP  RH WIND       PRES   REMARKS
TRI CITIES     CLOUDY    76  61  59 CALM      30.13S
ELIZABETHTON   CLOUDY    72  63  73 CALM      30.14F
$$

TNZ012-013-036-069-073-074-310000-
CENTRAL EAST TENNESSEE

CITY           SKY/WX    TMP DP  RH WIND       PRES   REMARKS
KNOXVILLE      CLOUDY    69  65  86 SE3       30.06F
OAK RIDGE      CLOUDY    78  66  66 E3        30.09F
GATLINBURG     CLEAR     77  57  50 E8        30.06F
MORRISTOWN     CLEAR     75  66  73 SE5       30.11F
$$

TNZ083-085-099-310000-
SOUTHEAST TENNESSEE

CITY           SKY/WX    TMP DP  RH WIND       PRES   REMARKS
CHATTANOOGA    PTSUNNY   77  64  64 SE6       30.08S
$$

SKY/WX REPORTED AS FAIR MEANS FEW OR NO CLOUDS BELOW
12 THOUSAND FEET.




USA.gov is the U.S. government's official web portal to all federal, state and local government web resources and services.